KD8CJ Weather Reports


time (UTC)temp
C
wind
direction
speed
KPH
gust
KPH
rain 1hr
cm
rain 24hr
cm
rain mn
cm
humidity
%
barometer
mb
20260510154521 15 135 1.6 6.4 0.00 0.99 0.20 69 1016.5
20260510153029 14 54 1.6 9.7 0.00 0.99 0.20 68 1016.4
20260510151509 13 84 3.2 4.8 0.00 0.99 0.20 76 1016.4
20260510150014 12 323 1.6 3.2 0.00 0.99 0.20 80 1016.2
20260510144522 12 101 0.0 6.4 0.00 0.99 0.20 78 1015.8
20260510143022 11 64 1.6 6.4 0.00 0.99 0.20 84 1015.4
20260510141527 10 128 0.0 1.6 0.00 0.99 0.20 86 1015.6
20260510140010 10 153 0.0 3.2 0.00 0.99 0.20 89 1015.4
20260510134516 10 138 0.0 0.0 0.00 0.99 0.20 90 1015.4
20260510133018 9 138 0.0 0.0 0.00 0.99 0.20 92 1015.2
20260510131523 8 13 0.0 0.0 0.00 0.99 0.20 93 1015.2
20260510130030 8 13 0.0 0.0 0.03 0.99 0.20 93 1014.9
20260510124515 8 13 0.0 0.0 0.03 0.99 0.20 93 1014.6
20260510123017 8 13 0.0 0.0 0.05 0.99 0.20 93 1014.4
20260510121523 8 13 0.0 0.0 0.05 0.99 0.20 93 1014.1
20260510120030 8 13 0.0 0.0 0.03 0.97 0.18 93 1014.0
20260510114529 8 13 0.0 0.0 0.03 0.97 0.18 93 1013.3
20260510113015 8 13 0.0 0.0 0.00 0.94 0.15 93 1013.4
20260510111530 8 13 0.0 0.0 0.00 0.97 0.15 93 1013.0
20260510110009 8 13 0.0 0.0 0.00 1.04 0.15 94 1012.5
20260510104512 8 13 0.0 0.0 0.00 1.09 0.15 94 1012.1
20260510103012 8 13 0.0 1.6 0.00 1.09 0.15 94 1011.7
20260510101516 9 13 0.0 1.6 0.00 1.09 0.15 94 1011.4
20260510100021 10 79 0.0 0.0 0.00 1.09 0.15 94 1011.3
20260510094506 10 79 0.0 0.0 0.00 1.09 0.15 95 1011.0
20260510093008 10 79 0.0 1.6 0.00 1.09 0.15 95 1010.8
20260510091527 10 79 0.0 0.0 0.00 1.09 0.15 95 1010.5
20260510090016 11 79 0.0 1.6 0.00 1.09 0.15 95 1010.4
20260510084522 10 122 0.0 1.6 0.00 1.12 0.15 95 1010.1
20260510083004 10 122 0.0 0.0 0.00 1.14 0.15 95 1009.8
20260510081523 10 276 0.0 1.6 0.00 1.14 0.15 94 1009.5
20260510080015 10 276 0.0 1.6 0.00 1.14 0.15 94 1009.5
20260510074519 10 276 0.0 0.0 0.00 1.14 0.15 94 1009.3
20260510073033 11 276 0.0 0.0 0.00 1.14 0.15 93 1009.3
20260510071511 11 276 0.0 1.6 0.00 1.14 0.15 94 1009.3
20260510070021 11 276 0.0 1.6 0.00 1.14 0.15 94 1009.2
20260510064542 11 261 0.0 1.6 0.00 1.14 0.15 93 1008.9
20260510063024 11 260 0.0 4.8 0.00 1.17 0.15 93 1008.9
20260510061538 11 263 0.0 1.6 0.00 1.17 0.15 93 1008.8
20260510060024 11 263 0.0 1.6 0.03 1.17 0.15 92 1008.8
20260510054510 12 330 0.0 0.0 0.08 1.17 0.15 92 1008.7
20260510053016 12 330 0.0 0.0 0.15 1.17 0.15 90 1008.7
20260510051522 13 330 0.0 11.3 0.15 1.17 0.15 88 1008.8
20260510050026 13 181 1.6 8.0 0.13 1.19 0.13 88 1009.2
20260510044511 12 259 3.2 14.5 0.08 1.14 0.08 95 1009.4
20260510043015 11 288 0.0 1.6 0.00 1.09 0.00 94 1008.3
20260510041520 11 300 0.0 1.6 0.00 1.09 0.00 94 1008.4
20260510040022 12 300 0.0 1.6 0.00 1.12 0.00 93 1008.5
20260510034525 12 300 0.0 1.6 0.13 1.12 1.12 94 1008.4
20260510033013 12 300 0.0 1.6 0.13 1.12 1.12 94 1008.5
20260510031514 12 68 0.0 1.6 0.13 1.12 1.12 94 1008.3
20260510030019 12 68 1.6 3.2 0.25 1.12 1.12 94 1008.1
20260510024528 12 272 0.0 1.6 0.13 1.02 0.99 93 1007.7
20260510023025 12 272 0.0 1.6 0.13 1.02 0.99 93 1007.9
20260510021513 12 264 0.0 1.6 0.13 1.04 0.99 93 1007.9
20260510020020 12 246 0.0 1.6 0.00 0.91 0.86 92 1007.7
20260510014526 12 246 0.0 0.0 0.33 0.91 0.86 91 1007.9
20260510013025 12 246 0.0 0.0 0.53 0.91 0.86 90 1007.9
20260510011528 13 246 0.0 1.6 0.53 0.91 0.86 89 1007.7
20260510010013 13 246 0.0 6.4 0.53 0.91 0.86 86 1008.0
20260510004518 15 104 1.6 8.0 0.20 0.58 0.53 79 1007.7
20260510003034 18 60 3.2 6.4 0.00 0.38 0.33 60 1006.6
20260510001528 19 103 3.2 8.0 0.00 0.41 0.33 55 1005.7
20260510000030 19 278 3.2 11.3 0.00 0.43 0.33 54 1005.7
20260509234521 19 313 4.8 17.7 0.00 0.43 0.33 54 1005.6
20260509233031 20 305 4.8 20.9 0.00 0.43 0.33 53 1005.4
20260509231519 20 251 3.2 17.7 0.00 0.43 0.33 51 1005.4
20260509230024 20 225 6.4 20.9 0.00 0.43 0.33 50 1005.3
20260509224528 20 264 4.8 14.5 0.00 0.43 0.33 50 1005.2
20260509223016 21 257 6.4 16.1 0.00 0.43 0.33 49 1005.2
20260509221504 21 300 6.4 17.7 0.00 0.43 0.33 51 1005.2
20260509220006 21 147 4.8 22.5 0.00 0.43 0.33 50 1005.3
20260509214508 21 217 6.4 16.1 0.00 0.43 0.33 51 1005.4
20260509213013 21 282 6.4 12.9 0.00 0.43 0.33 51 1005.4
20260509211516 21 264 6.4 16.1 0.00 0.43 0.33 51 1005.4
20260509210004 21 302 6.4 14.5 0.00 0.43 0.33 51 1005.8
20260509204505 21 255 4.8 12.9 0.00 0.43 0.33 53 1006.0
20260509203008 21 282 4.8 12.9 0.00 0.43 0.33 51 1006.1
20260509201515 21 311 4.8 11.3 0.00 0.43 0.33 50 1006.1
20260509200020 21 229 6.4 16.1 0.00 0.43 0.33 50 1006.4
20260509194506 20 200 4.8 19.3 0.00 0.43 0.33 53 1006.5
20260509193007 20 286 4.8 16.1 0.00 0.43 0.33 56 1006.7
20260509191510 20 252 4.8 16.1 0.00 0.43 0.33 56 1007.0
20260509190019 20 243 3.2 17.7 0.00 0.43 0.33 55 1007.0
20260509184526 20 147 8.0 17.7 0.00 0.43 0.33 55 1007.2
20260509183032 19 273 4.8 17.7 0.00 0.43 0.33 58 1007.2
20260509181508 20 257 4.8 14.5 0.00 0.43 0.33 58 1007.3
20260509180017 19 263 3.2 16.1 0.00 0.43 0.33 61 1007.2
20260509174518 19 245 6.4 14.5 0.00 0.43 0.33 60 1007.5
20260509173026 18 190 3.2 9.7 0.00 0.43 0.33 67 1007.4
20260509171534 18 269 4.8 12.9 0.00 0.43 0.33 66 1007.5
20260509170008 17 273 1.6 12.9 0.00 0.43 0.33 71 1007.6
20260509164513 17 239 3.2 9.7 0.00 0.43 0.33 71 1007.7
20260509163027 16 257 3.2 11.3 0.00 0.43 0.33 74 1007.6
20260509161527 16 296 4.8 14.5 0.00 0.43 0.33 74 1007.6
20260509160026 16 254 1.6 8.0 0.00 0.43 0.33 76 1007.5